Regional Weather Roundup
Issued by NWS Little Rock, AR

Home | Current Version | Previous Version | Text Only | Print | Product List | Glossary Off
Versions: 1 2 3 4 5 6 7 8 9 10 11 12 13 14 15 16 17 18 19 20 21 22 23 24 25 26 27 28 29 30 31 32 33 34 35 36 37 38 39 40 41 42 43 44 45 46 47 48 49 50

000
ASUS44 KLZK 181805
RWRLZK

WEATHER ROUNDUP FOR ARKANSAS
NATIONAL WEATHER SERVICE LITTLE ROCK AR
1200 PM CST THU DEC 18 2014

NOTE: "FAIR" INDICATES FEW OR NO CLOUDS BELOW 12,000 FEET WITH NO
SIGNIFICANT WEATHER AND/OR OBSTRUCTIONS TO VISIBILITY.

ARZ001-003-010-029-181900-
NORTHWEST ARKANSAS

CITY           SKY/WX    TMP DP  RH WIND       PRES   REMARKS
FAYETTEVILLE   CLOUDY    40  37  89 CALM      30.17F
6HR MIN TEMP:  36; 6HR MAX TEMP:  40;

FORT SMITH     CLOUDY    40  36  86 E8        30.20F
6HR MIN TEMP:  37; 6HR MAX TEMP:  40;

HARRISON       CLOUDY    38  37  97 S6        30.17F
6HR MIN TEMP:  33; 6HR MAX TEMP:  38;

BENTONVILLE    CLOUDY    39  36  87 SW3       30.18F
6HR MIN TEMP:  37; 6HR MAX TEMP:  39;

ROGERS         CLOUDY    39  37  92 MISG      30.17F
6HR MIN TEMP:  36; 6HR MAX TEMP:  39; 6HR PCP: TRACE;

SILOAM SPGS    CLOUDY    39  32  75 SW3       30.19F
6HR MIN TEMP:  36; 6HR MAX TEMP:  39;

HIGHFILL       CLOUDY    39  38  96 W3        30.17F
6HR MIN TEMP:  36; 6HR MAX TEMP:  39;

$$

ARZ004-005-016-181900-
NORTH CENTRAL ARKANSAS

CITY           SKY/WX    TMP DP  RH WIND       PRES   REMARKS
BATESVILLE     CLOUDY    37  36  93 E5        30.23F
6HR MIN TEMP:  36; 6HR MAX TEMP:  39;

FLIPPIN        CLOUDY    37  32  81 SE5       30.20F
6HR MIN TEMP:  34; 6HR MAX TEMP:  37;

MTN HOME       CLOUDY    36  34  92 SE7       30.19F
6HR MIN TEMP:  33; 6HR MAX TEMP:  36;

$$

ARZ040-041-181900-
WEST CENTRAL ARKANSAS

CITY           SKY/WX    TMP DP  RH WIND       PRES   REMARKS
MENA           CLOUDY    43  41  93 E3        30.17F
MOUNT IDA      CLOUDY    42  39  89 CALM      30.17F
6HR MIN TEMP:  38; 6HR MAX TEMP:  42;

$$

ARZ009-017-025-026-028-181900-
NORTHEAST ARKANSAS

CITY           SKY/WX    TMP DP  RH WIND       PRES   REMARKS
CORNING        MOCLDY    39  36  87 E8        30.25F
JONESBORO      CLOUDY    40  37  89 E8        30.24F
6HR MIN TEMP:  37; 6HR MAX TEMP:  40; 6HR PCP: TRACE;

NEWPORT        LGT RAIN  41  37  85 E5        30.25F VSB 3/4
6HR MIN TEMP:  37; 6HR MAX TEMP:  41; 6HR PCP: TRACE;

WALNUT RIDGE   CLOUDY    39  34  81 E7        30.25F
6HR MIN TEMP:  36; 6HR MAX TEMP:  39;

BLYTHEVILLE    CLOUDY    40  36  86 E6        30.25F
6HR MIN TEMP:  37; 6HR MAX TEMP:  40; 6HR PCP: TRACE;

$$

ARZ022-023-033-042-044-181900-
CENTRAL ARKANSAS

CITY           SKY/WX    TMP DP  RH WIND       PRES   REMARKS
LITTLE ROCK    CLOUDY    41  37  86 CALM      30.22F FOG
6HR MIN TEMP:  38; 6HR MAX TEMP:  41; 6HR PCP: TRACE;

N LITTLE ROCK  CLOUDY    39  39 100 NE6       30.22F
6HR MIN TEMP:  36; 6HR MAX TEMP:  40;

JACKSONVILLE   CLOUDY    40  39  95 E2        30.21F
6HR MIN TEMP:  37; 6HR MAX TEMP:  40;

SEARCY         CLOUDY    40  38  93 E5        30.24F FOG
6HR MIN TEMP:  37; 6HR MAX TEMP:  40; 6HR PCP: TRACE;

HOT SPRINGS    CLOUDY    41  39  93 E5        30.20F
6HR MIN TEMP:  37; 6HR MAX TEMP:  42;

RUSSELLVILLE   CLOUDY    39  36  89 E3        30.21F
6HR MIN TEMP:  36; 6HR MAX TEMP:  39;

CLINTON        CLOUDY    37  36  93 CALM      30.23F FOG
$$

ARZ036-181900-
EAST ARKANSAS

CITY           SKY/WX    TMP DP  RH WIND       PRES   REMARKS
WEST MEMPHIS   CLOUDY    42  38  85 CALM      30.22F
6HR MIN TEMP:  38; 6HR MAX TEMP:  43; 6HR PCP: TRACE;

$$

ARZ050-053-066-070-073-181900-
SOUTHWEST ARKANSAS

CITY           SKY/WX    TMP DP  RH WIND       PRES   REMARKS
ARKADELPHIA    CLOUDY    42  42 100 N6        30.22F
6HR MIN TEMP:  38; 6HR MAX TEMP:  42;

CAMDEN         CLOUDY    46  41  81 MISG      30.20F
TEXARKANA      CLOUDY    45  42  89 E6        30.18F
6HR MIN TEMP:  39; 6HR MAX TEMP:  45;

EL DORADO      CLOUDY    49  44  83 E5        30.18F
6HR MIN TEMP:  40; 6HR MAX TEMP:  49; 6HR PCP:  0.03;

DE QUEEN       CLOUDY    43  41  93 E6        30.18F FOG
6HR MIN TEMP:  39; 6HR MAX TEMP:  43;

$$

ARZ056-057-069-181900-
SOUTHEAST ARKANSAS

CITY           SKY/WX    TMP DP  RH WIND       PRES   REMARKS
PINE BLUFF     CLOUDY    43  39  86 N5        30.21F
6HR MIN TEMP:  39; 6HR MAX TEMP:  43; 6HR PCP: TRACE;

STUTTGART      CLOUDY    41  37  87 NE6       30.22F
6HR MIN TEMP:  37; 6HR MAX TEMP:  41;

MONTICELLO     CLOUDY    48  43  82 SE7       30.19F
6HR MIN TEMP:  40; 6HR MAX TEMP:  48; 6HR PCP:  0.01;


$$





USA.gov is the U.S. government's official web portal to all federal, state and local government web resources and services.